GAOFEN-5 01

Last updated on Tue Oct 15 2024 00:02:25 GMT+0000 (Coordinated Universal Time)

1 43461U 18043A 24288.58079838 .00001434 00000+0 31190-3 0 9994 2 43461 98.3697 239.8978 0002367 134.3798 225.7595 14.59540544342589
UTC large
Height (km)
Speed (km/s)
/
Latitude / Longitude
Inclination (degrees)
Orbital Period (minutes)
Azimuth
Elevation
Range (km)
Doppler Factor

Next 0 passes for location: London (51.5072 / 0.1276)

Sorry there are no passes over London.